TimeEST,TemperatureF,Dew PointF,Humidity,Sea Level PressureIn,VisibilityMPH,Wind Direction,Wind SpeedMPH,Gust SpeedMPH,PrecipitationIn,Events,Conditions,WindDirDegrees,DateUTC
12:53 AM,45.0,23.0,42,30.25,10.0,ENE,4.6,-,N/A,,Overcast,70,2013-02-22 05:53:00
1:53 AM,45.0,23.0,42,30.24,10.0,NE,10.4,-,N/A,,Scattered Clouds,50,2013-02-22 06:53:00
2:53 AM,44.1,23.0,43,30.26,10.0,NE,6.9,-,N/A,,Scattered Clouds,40,2013-02-22 07:53:00
3:53 AM,42.1,24.1,49,30.30,10.0,NNE,10.4,-,N/A,,Overcast,30,2013-02-22 08:53:00
4:53 AM,39.9,26.1,58,30.28,10.0,NE,9.2,-,N/A,,Mostly Cloudy,50,2013-02-22 09:53:00
5:53 AM,37.9,27.0,65,30.25,10.0,East,11.5,17.3,N/A,,Overcast,80,2013-02-22 10:53:00
6:53 AM,37.9,28.0,68,30.28,10.0,East,5.8,-,N/A,,Overcast,80,2013-02-22 11:53:00
7:53 AM,37.0,30.0,76,30.28,10.0,ENE,3.5,-,0.00,,Overcast,60,2013-02-22 12:53:00
8:53 AM,37.0,32.0,82,30.30,10.0,NNE,10.4,-,0.00,,Mostly Cloudy,30,2013-02-22 13:53:00
9:53 AM,37.9,30.9,76,30.27,10.0,ENE,9.2,-,N/A,,Overcast,60,2013-02-22 14:53:00
10:53 AM,39.0,30.9,73,30.28,10.0,East,5.8,-,N/A,,Overcast,80,2013-02-22 15:53:00
11:53 AM,39.9,30.9,70,30.26,10.0,East,5.8,-,N/A,,Overcast,80,2013-02-22 16:53:00
12:53 PM,41.0,32.0,70,30.23,10.0,NE,9.2,-,N/A,,Overcast,40,2013-02-22 17:53:00
1:11 PM,41.0,32.0,70,30.23,10.0,ENE,6.9,-,N/A,,Overcast,60,2013-02-22 18:11:00
1:53 PM,39.9,34.0,79,30.21,3.0,NE,9.2,-,0.02,Rain,Rain,40,2013-02-22 18:53:00
2:17 PM,39.2,35.6,87,30.20,2.0,NE,6.9,-,0.01,,Overcast,50,2013-02-22 19:17:00
2:37 PM,39.2,37.4,93,30.20,3.0,NE,4.6,-,0.01,,Overcast,50,2013-02-22 19:37:00
2:53 PM,39.0,37.0,93,30.18,2.5,ENE,8.1,-,0.01,,Overcast,60,2013-02-22 19:53:00
2:55 PM,39.2,35.6,87,30.19,2.5,NE,8.1,-,N/A,,Overcast,50,2013-02-22 19:55:00
3:05 PM,39.2,35.6,87,30.18,4.0,ENE,6.9,-,N/A,,Overcast,60,2013-02-22 20:05:00
3:53 PM,39.0,37.0,93,30.19,5.0,NE,9.2,-,N/A,,Overcast,40,2013-02-22 20:53:00
3:55 PM,39.2,37.4,93,30.20,5.0,NNE,8.1,-,N/A,,Overcast,30,2013-02-22 20:55:00
4:14 PM,39.2,35.6,87,30.20,5.0,NNE,8.1,-,N/A,,Overcast,30,2013-02-22 21:14:00
4:53 PM,37.9,36.0,93,30.19,2.0,NNE,10.4,-,0.02,Rain,Light Rain,20,2013-02-22 21:53:00
5:08 PM,39.2,37.4,93,30.19,4.0,NNE,8.1,-,0.00,,Overcast,30,2013-02-22 22:08:00
5:24 PM,37.4,35.6,93,30.18,1.8,NNE,11.5,-,0.00,Rain,Light Rain,30,2013-02-22 22:24:00
5:53 PM,37.9,37.0,97,30.17,1.2,NNE,9.2,-,0.01,,Overcast,20,2013-02-22 22:53:00
6:31 PM,37.4,35.6,93,30.19,1.2,NNE,9.2,-,0.00,,Light Drizzle,20,2013-02-22 23:31:00
6:53 PM,37.9,36.0,93,30.17,2.5,NNE,10.4,-,0.00,Rain,Light Rain,30,2013-02-22 23:53:00
7:00 PM,37.4,35.6,93,30.18,3.0,NNE,6.9,-,0.00,Rain,Light Rain,30,2013-02-23 00:00:00
7:53 PM,37.9,36.0,93,30.16,4.0,ENE,5.8,-,0.00,Rain,Light Rain,60,2013-02-23 00:53:00
8:53 PM,37.9,37.0,97,30.14,4.0,NNE,8.1,-,0.00,Rain,Light Rain,20,2013-02-23 01:53:00
9:53 PM,37.9,37.0,97,30.16,3.0,North,9.2,-,0.02,Rain,Light Rain,360,2013-02-23 02:53:00
10:53 PM,37.9,37.0,97,30.14,5.0,North,6.9,-,0.02,,Overcast,10,2013-02-23 03:53:00
11:53 PM,37.9,37.0,97,30.11,4.0,North,12.7,-,0.00,Rain,Light Rain,10,2013-02-23 04:53:00